This is the latest recevied weather packets stored in our database for station/object EA6AMI-5. If no packets are shown the sender has not sent any weather packets the latest 10 day(s).
| Time | Temp. | Humidity | Pressure | Rain* | Wind** | Luminosity | Snow |
|---|---|---|---|---|---|---|---|
| 1787410444 | 29.44° C | 55% | 1016 hPa | 0 mm | - | 499 W/m² | - |
| 1787409904 | 30° C | 56% | 1015.9 hPa | 0 mm | - | 527 W/m² | - |
| 1787409363 | 30° C | 55% | 1015.8 hPa | 0 mm | - | 568 W/m² | - |
| 1787408824 | 30° C | 55% | 1016.2 hPa | 0 mm | - | 604 W/m² | - |
| 1787408283 | 30° C | 55% | 1016 hPa | 0 mm | - | 600 W/m² | - |
| 1787407744 | 29.44° C | 55% | 1015.9 hPa | 0 mm | - | 649 W/m² | - |
| 1787407204 | 30° C | 54% | 1016.3 hPa | 0 mm | - | 657 W/m² | - |
| 1787406843 | 29.44° C | 55% | 1016.1 hPa | 0 mm | - | 648 W/m² | - |
| 1787406304 | 29.44° C | 56% | 1016.3 hPa | 0 mm | - | 712 W/m² | - |
| 1787405764 | 30° C | 56% | 1016.2 hPa | 0 mm | - | 238 W/m² | - |
| 1787405224 | 29.44° C | 56% | 1016.2 hPa | 0 mm | - | 178 W/m² | - |
| 1787404683 | 29.44° C | 55% | 1016.5 hPa | 0 mm | - | 743 W/m² | - |
| 1787404143 | 30° C | 55% | 1016.4 hPa | 0 mm | - | 227 W/m² | - |
| 1787403603 | 29.44° C | 57% | 1016.5 hPa | 0 mm | - | 219 W/m² | - |
| 1787403243 | 30° C | 55% | 1016.5 hPa | 0 mm | - | 365 W/m² | - |
| 1787402703 | 30° C | 55% | 1016.6 hPa | 0 mm | - | 898 W/m² | - |
| 1787402163 | 30° C | 55% | 1016.6 hPa | 0 mm | - | 295 W/m² | - |
| 1787401623 | 29.44° C | 56% | 1017.1 hPa | 0 mm | - | 912 W/m² | - |
| 1787401083 | 29.44° C | 57% | 1017.1 hPa | 0 mm | - | 235 W/m² | - |
| 1787400543 | 28.89° C | 58% | 1016.9 hPa | 0 mm | - | 691 W/m² | - |
| 1787400003 | 28.33° C | 59% | 1017 hPa | 0 mm | - | 980 W/m² | - |
| 1787399643 | 28.89° C | 59% | 1017 hPa | 0 mm | - | 243 W/m² | - |
| 1787399103 | 28.33° C | 59% | 1017.1 hPa | 0 mm | - | 274 W/m² | - |
| 1787398563 | 29.44° C | 57% | 1017 hPa | 0 mm | - | 254 W/m² | - |
| 1787398023 | 28.89° C | 58% | 1017 hPa | 0 mm | - | 828 W/m² | - |
* Rain latest hour (hover to see other rain measurements)
** Current wind speed in m/s (hover to see current wind gust speed)